Location: Gu�tanj
(46.5431°N, 14.9692°E)
Time: 15:01:51
(UTC+00:00)

Cosmos 2263 Rocket - Pass Details

Date: 03 March 2021
Orbit: 825 x 847 km, 71.0° (Epoch: 19 April)

Event Time Altitude Azimuth Distance (km) Brightness Sun altitude
Rises 17:48:23 0° 326° (NW) 3,372 5.9 -11.0°
Reaches altitude 10° 17:51:01 10° 317° (NW) 2,434 5.3 -11.4°
Maximum altitude 17:55:57 34° 255° (WSW) 1,344 4.0 -12.3°
Drops below altitude 10° 18:00:52 10° 192° (SSW) 2,422 4.7 -13.1°
Sets 18:03:30 0° 183° (S) 3,353 5.3 -13.6°
